Year,Month,Day,Hour,Minute,Value (Times are PST for temperature in C)
2018,09,16,12,39,14.20
2018,09,16,12,40,14.20
2018,09,16,12,41,14.20
2018,09,16,12,42,14.20
2018,09,16,12,43,14.20
2018,09,16,12,44,14.20
2018,09,16,12,45,14.20
2018,09,16,12,46,14.20
2018,09,16,12,47,14.20
2018,09,16,12,48,14.20
2018,09,16,12,49,14.20
2018,09,16,12,50,14.20
2018,09,16,12,51,14.20
2018,09,16,12,52,14.10
2018,09,16,12,53,14.10
2018,09,16,12,54,13.90
2018,09,16,12,55,13.60
2018,09,16,12,56,13.40
2018,09,16,12,57,13.30
2018,09,16,12,58,13.20
2018,09,16,12,59,13.00
2018,09,16,13,00,12.90
2018,09,16,13,01,12.80
2018,09,16,13,02,12.60
2018,09,16,13,03,12.60
2018,09,16,13,04,12.50
2018,09,16,13,05,12.50
2018,09,16,13,06,12.40
2018,09,16,13,07,12.40
2018,09,16,13,08,12.30
2018,09,16,13,09,12.30
2018,09,16,13,10,12.30
2018,09,16,13,11,12.20
2018,09,16,13,12,12.20
2018,09,16,13,13,12.10
2018,09,16,13,14,12.10
2018,09,16,13,15,12.10
2018,09,16,13,16,12.10
2018,09,16,13,17,12.10
2018,09,16,13,18,12.10
2018,09,16,13,19,12.10
2018,09,16,13,20,12.10
2018,09,16,13,21,12.10
2018,09,16,13,22,12.00
2018,09,16,13,23,12.00
2018,09,16,13,24,11.90
2018,09,16,13,25,11.90
2018,09,16,13,26,11.90
2018,09,16,13,27,11.90
2018,09,16,13,28,11.90
2018,09,16,14,31,12.00
2018,09,16,14,32,12.00
2018,09,16,14,33,12.10
2018,09,16,14,34,12.10
2018,09,16,14,35,12.10
2018,09,16,14,36,12.20
2018,09,16,14,37,12.20
2018,09,16,14,38,12.10
2018,09,16,14,39,12.10
2018,09,16,14,40,12.10
2018,09,16,14,41,12.10
2018,09,16,14,42,12.10
2018,09,16,14,43,12.10
2018,09,16,14,44,12.10
2018,09,16,14,45,12.10
2018,09,16,14,46,12.10
2018,09,16,14,47,12.10
2018,09,16,14,48,12.10
2018,09,16,14,49,12.10
2018,09,16,14,50,12.10
2018,09,16,14,51,12.10
2018,09,16,14,52,12.10
2018,09,16,14,53,12.10
2018,09,16,14,54,12.10
2018,09,16,14,55,12.10
2018,09,16,14,56,12.10
2018,09,16,14,57,12.10
2018,09,16,14,58,12.10
2018,09,16,14,59,12.10
2018,09,16,15,00,12.10
2018,09,16,15,01,12.10
2018,09,16,15,02,12.10
2018,09,16,15,03,12.10
2018,09,16,15,04,12.10
2018,09,16,15,05,12.10
2018,09,16,15,06,12.10
2018,09,16,15,07,12.20
2018,09,16,15,08,12.20
2018,09,16,15,09,12.10
2018,09,16,15,10,12.10
2018,09,16,15,11,12.10
2018,09,16,15,12,12.10
2018,09,16,15,13,12.00
2018,09,16,15,14,12.00
2018,09,16,15,15,11.90
2018,09,16,15,16,11.90
2018,09,16,15,17,11.90
2018,09,16,15,18,11.90
2018,09,16,15,19,11.90
2018,09,16,15,20,12.00
2018,09,16,15,21,12.00
2018,09,16,15,22,12.10
2018,09,16,15,23,12.10
2018,09,16,15,24,12.20
2018,09,16,15,25,12.20
2018,09,16,15,26,12.20
2018,09,16,15,27,12.30
2018,09,16,15,28,12.30
2018,09,16,15,29,12.30
2018,09,16,15,30,12.40
2018,09,16,15,31,12.40
2018,09,16,15,32,12.40
2018,09,16,15,33,12.40
2018,09,16,15,34,12.30
2018,09,16,15,35,12.30
2018,09,16,15,36,12.30
2018,09,16,15,37,12.20
2018,09,16,15,38,12.20
2018,09,16,15,39,12.20
2018,09,16,15,40,12.20
2018,09,16,15,41,12.20
2018,09,16,15,42,12.20
2018,09,16,15,43,12.10
2018,09,16,15,44,12.10
2018,09,16,15,45,12.10
2018,09,16,15,46,12.20
2018,09,16,15,47,12.20
2018,09,16,15,48,12.20
2018,09,16,15,49,12.30
2018,09,16,15,50,12.30
2018,09,16,15,51,12.30
2018,09,16,15,52,12.30
2018,09,16,15,53,12.30
2018,09,16,15,54,12.30
2018,09,16,15,55,12.30
2018,09,16,15,56,12.30
2018,09,16,15,57,12.30
2018,09,16,15,58,12.30
2018,09,16,15,59,12.30
2018,09,16,16,00,12.30
2018,09,16,16,01,12.30
2018,09,16,16,02,12.30
2018,09,16,16,03,12.20
2018,09,16,16,04,12.20
2018,09,16,16,05,12.20
2018,09,16,16,06,12.20
2018,09,16,16,07,12.20
2018,09,16,16,08,12.20
2018,09,16,16,09,12.30
2018,09,16,16,10,12.30
2018,09,16,16,11,12.20
2018,09,16,16,12,12.20
2018,09,16,16,13,12.20
2018,09,16,16,14,12.20
2018,09,16,16,15,12.20
2018,09,16,16,16,12.10
2018,09,16,16,17,12.10
2018,09,16,16,18,12.10
2018,09,16,16,19,12.10
2018,09,16,16,20,12.10
2018,09,16,16,21,12.00
2018,09,16,16,22,12.00
2018,09,16,16,23,12.00
2018,09,16,16,24,12.00
2018,09,16,16,25,12.00
2018,09,16,16,26,12.00
2018,09,16,16,27,12.10
2018,09,16,16,28,12.00
2018,09,16,16,29,12.00
2018,09,16,16,30,11.90
2018,09,16,16,31,11.90
2018,09,16,16,32,11.90
2018,09,16,16,33,11.90
2018,09,16,16,34,11.90
2018,09,16,16,35,11.90
2018,09,16,16,36,11.90
2018,09,16,16,37,11.90
2018,09,16,16,38,11.90
2018,09,16,16,39,12.00
2018,09,16,16,40,12.00
2018,09,16,16,41,12.00
2018,09,16,16,42,11.90
2018,09,16,16,43,11.90
2018,09,16,16,44,11.90
2018,09,16,16,45,11.90
2018,09,16,16,46,11.90
2018,09,16,16,47,11.90
2018,09,16,16,48,11.90
2018,09,16,16,49,11.90
2018,09,16,16,50,11.90
2018,09,16,16,51,11.90
2018,09,16,16,52,11.90
2018,09,16,16,53,11.90
2018,09,16,16,54,11.90
2018,09,16,16,55,11.90
2018,09,16,16,56,11.90
2018,09,16,16,57,11.90
2018,09,16,16,58,11.90
2018,09,16,16,59,11.90
2018,09,16,17,00,11.90
2018,09,16,17,01,11.90
2018,09,16,17,02,11.90
2018,09,16,17,03,11.90
2018,09,16,17,04,11.80
2018,09,16,17,05,11.80
2018,09,16,17,06,11.80
2018,09,16,17,07,11.90
2018,09,16,17,08,11.90
2018,09,16,17,09,11.90
2018,09,16,17,10,11.90
2018,09,16,17,11,11.90
2018,09,16,17,12,11.90
2018,09,16,17,13,12.00
2018,09,16,17,14,12.00
2018,09,16,17,15,12.00
2018,09,16,17,16,12.00
2018,09,16,17,17,12.00
2018,09,16,17,18,12.00
2018,09,16,17,19,12.00
2018,09,16,17,20,12.00
2018,09,16,17,21,12.00
2018,09,16,17,22,12.00
2018,09,16,17,23,12.00
2018,09,16,17,24,12.10
2018,09,16,17,25,12.00
2018,09,16,17,26,12.00
2018,09,16,17,27,12.00
2018,09,16,17,28,12.10
2018,09,16,17,29,12.10
2018,09,16,17,30,12.00
2018,09,16,17,31,12.00
2018,09,16,17,32,12.00
2018,09,16,17,33,11.90
2018,09,16,17,34,11.90
2018,09,16,17,35,11.90
2018,09,16,17,36,11.90
2018,09,16,17,37,11.90
2018,09,16,17,38,11.90
2018,09,16,17,39,12.00
2018,09,16,17,40,12.00
2018,09,16,17,41,12.00
2018,09,16,17,42,12.00
2018,09,16,17,43,12.00
2018,09,16,17,44,12.00
2018,09,16,17,45,12.00
2018,09,16,17,46,12.10
2018,09,16,17,47,12.10
2018,09,16,17,48,12.10
2018,09,16,17,49,12.10
2018,09,16,17,50,12.10
2018,09,16,17,51,12.10
2018,09,16,17,52,12.00
2018,09,16,17,53,12.00
2018,09,16,17,54,12.00
2018,09,16,17,55,11.90
2018,09,16,17,56,11.90
2018,09,16,17,57,11.90
2018,09,16,17,58,11.90
2018,09,16,17,59,12.00
2018,09,16,18,00,12.00
2018,09,16,18,01,12.00
2018,09,16,18,02,12.00
2018,09,16,18,03,12.00
2018,09,16,18,04,12.00
2018,09,16,18,05,12.10
2018,09,16,18,06,12.10
2018,09,16,18,07,12.10
2018,09,16,18,08,12.10
2018,09,16,18,09,12.00
2018,09,16,18,10,12.00
2018,09,16,18,11,12.00
2018,09,16,18,12,12.00
2018,09,16,18,13,12.10
2018,09,16,18,14,12.10
2018,09,16,18,15,12.10
2018,09,16,18,16,12.10
2018,09,16,18,17,12.10
2018,09,16,18,18,12.10
2018,09,16,18,19,12.10
2018,09,16,18,20,12.10
2018,09,16,18,21,12.10
2018,09,16,18,22,12.00
2018,09,16,18,23,12.00
2018,09,16,18,24,12.00
2018,09,16,18,25,11.90
2018,09,16,18,26,11.90
2018,09,16,18,27,11.90
2018,09,16,18,28,11.90
2018,09,16,18,29,11.90
2018,09,16,18,30,11.90
2018,09,16,18,31,11.90
2018,09,16,18,32,11.90
2018,09,16,18,33,11.90
2018,09,16,18,34,11.90
2018,09,16,18,35,11.90
2018,09,16,18,36,11.90
2018,09,16,18,37,11.90
2018,09,16,18,38,11.90
2018,09,16,18,39,11.90
2018,09,16,18,40,11.90
2018,09,16,18,41,11.90
2018,09,16,18,42,11.90
2018,09,16,18,43,11.90
2018,09,16,18,44,11.90
2018,09,16,18,45,11.90
2018,09,16,18,46,11.90
2018,09,16,18,47,11.90
2018,09,16,18,48,11.90
2018,09,16,18,49,11.90
2018,09,16,18,50,11.90
2018,09,16,18,51,11.90
2018,09,16,18,52,11.90
2018,09,16,18,53,11.90
2018,09,16,18,54,11.90
2018,09,16,18,55,11.90
2018,09,16,18,56,11.90
2018,09,16,18,57,11.80
2018,09,16,18,58,11.80
2018,09,16,18,59,11.80
2018,09,16,19,00,11.80
2018,09,16,19,01,11.80
2018,09,16,19,02,11.80
2018,09,16,19,03,11.80
2018,09,16,19,04,11.80
2018,09,16,19,05,11.80
2018,09,16,19,06,11.80
2018,09,16,19,07,11.80
2018,09,16,19,08,11.80
2018,09,16,19,09,11.80
2018,09,16,19,10,11.80
2018,09,16,19,11,11.80
2018,09,16,19,12,11.80
2018,09,16,19,13,11.80
2018,09,16,19,14,11.80
2018,09,16,19,15,11.80
2018,09,16,19,16,11.80
2018,09,16,19,17,11.80
2018,09,16,19,18,11.80
2018,09,16,19,19,11.80
2018,09,16,19,20,11.80
2018,09,16,19,21,11.80
2018,09,16,19,22,11.80
2018,09,16,19,23,11.80
2018,09,16,19,24,11.80
2018,09,16,19,25,11.80
2018,09,16,19,26,11.80
2018,09,16,19,27,11.80
2018,09,16,19,28,11.80
2018,09,16,19,29,11.80
2018,09,16,19,30,11.80
2018,09,16,19,31,11.80
2018,09,16,19,32,11.80
2018,09,16,19,33,11.80
2018,09,16,19,34,11.80
2018,09,16,19,35,11.80
2018,09,16,19,36,11.80
2018,09,16,19,37,11.80
2018,09,16,19,38,11.80
2018,09,16,19,39,11.80
2018,09,16,19,40,11.80
2018,09,16,19,41,11.80
2018,09,16,19,42,11.80
2018,09,16,19,43,11.80
2018,09,16,19,44,11.80
2018,09,16,19,45,11.80
2018,09,16,19,46,11.80
2018,09,16,19,47,11.80
2018,09,16,19,48,11.80
2018,09,16,19,49,11.80
2018,09,16,19,50,11.70
2018,09,16,19,51,11.70
2018,09,16,19,52,11.70
2018,09,16,19,53,11.70
2018,09,16,19,54,11.80
2018,09,16,19,55,11.80
2018,09,16,19,56,11.80
2018,09,16,19,57,11.80
2018,09,16,19,58,11.80
2018,09,16,19,59,11.80
2018,09,16,20,00,11.80
2018,09,16,20,01,11.80
2018,09,16,20,02,11.80
2018,09,16,20,03,11.80
2018,09,16,20,04,11.80
2018,09,16,20,05,11.80
2018,09,16,20,06,11.80
2018,09,16,20,07,11.80
2018,09,16,20,08,11.80
2018,09,16,20,09,11.80
2018,09,16,20,10,11.80
2018,09,16,20,11,11.80
2018,09,16,20,12,11.80
2018,09,16,20,13,11.80
2018,09,16,20,14,11.80
2018,09,16,20,15,11.80
2018,09,16,20,16,11.80
2018,09,16,20,17,11.80
2018,09,16,20,18,11.90
2018,09,16,20,19,11.90
2018,09,16,20,20,11.90
2018,09,16,20,21,11.90
2018,09,16,20,22,11.90
2018,09,16,20,23,11.90
2018,09,16,20,24,11.90
2018,09,16,20,25,11.90
2018,09,16,20,26,11.90
2018,09,16,20,27,11.90
2018,09,16,20,28,11.90
2018,09,16,20,29,11.90
2018,09,16,20,30,11.90
2018,09,16,20,31,11.90
2018,09,16,20,32,11.90
2018,09,16,20,33,11.90
2018,09,16,20,34,11.80
2018,09,16,20,35,11.80
2018,09,16,20,36,11.80
2018,09,16,20,37,11.80
2018,09,16,20,38,11.80
2018,09,16,20,39,11.80
2018,09,16,20,40,11.80
2018,09,16,20,41,11.80
2018,09,16,20,42,11.80
2018,09,16,20,43,11.80
2018,09,16,20,44,11.80
2018,09,16,20,45,11.80
2018,09,16,20,46,11.80
2018,09,16,20,47,11.80
2018,09,16,20,48,11.80
2018,09,16,20,49,11.80
2018,09,16,20,50,11.80
2018,09,16,20,51,11.80
2018,09,16,20,52,11.80
2018,09,16,20,53,11.80
2018,09,16,20,54,11.80
2018,09,16,20,55,11.80
2018,09,16,20,56,11.80
2018,09,16,20,57,11.80
2018,09,16,20,58,11.80
2018,09,16,20,59,11.70
2018,09,16,21,00,11.80
2018,09,16,21,01,11.80
2018,09,16,21,02,11.80
2018,09,16,21,03,11.80
2018,09,16,21,04,11.80
2018,09,16,21,05,11.80
2018,09,16,21,06,11.80
2018,09,16,21,07,11.80
2018,09,16,21,08,11.80
2018,09,16,21,09,11.80
2018,09,16,21,10,11.80
2018,09,16,21,11,11.80
2018,09,16,21,12,11.70
2018,09,16,21,13,11.70
2018,09,16,21,14,11.70
2018,09,16,21,15,11.70
2018,09,16,21,16,11.70
2018,09,16,21,17,11.70
2018,09,16,21,18,11.70
2018,09,16,21,19,11.70
2018,09,16,21,20,11.70
2018,09,16,21,21,11.70
2018,09,16,21,22,11.70
2018,09,16,21,23,11.70
2018,09,16,21,24,11.70
2018,09,16,21,25,11.70
2018,09,16,21,26,11.70
2018,09,16,21,27,11.70
2018,09,16,21,28,11.70
2018,09,16,21,29,11.70
2018,09,16,21,30,11.70
2018,09,16,21,31,11.70
2018,09,16,21,32,11.70
2018,09,16,21,33,11.70
2018,09,16,21,34,11.70
2018,09,16,21,35,11.70
2018,09,16,21,36,11.70
2018,09,16,21,37,11.70
2018,09,16,21,38,11.70
2018,09,16,21,39,11.70
2018,09,16,21,40,11.70
2018,09,16,21,41,11.70
2018,09,16,21,42,11.70
2018,09,16,21,43,11.70
2018,09,16,21,44,11.70
2018,09,16,21,45,11.70
2018,09,16,21,46,11.70
2018,09,16,21,47,11.70
2018,09,16,21,48,11.70
2018,09,16,21,49,11.70
2018,09,16,21,50,11.60
2018,09,16,21,51,11.60
2018,09,16,21,52,11.60
2018,09,16,21,53,11.60
2018,09,16,21,54,11.60
2018,09,16,21,55,11.60
2018,09,16,21,56,11.60
2018,09,16,21,57,11.60
2018,09,16,21,58,11.60
2018,09,16,21,59,11.60
2018,09,16,22,00,11.60
2018,09,16,22,01,11.60
2018,09,16,22,02,11.60
2018,09,16,22,03,11.60
2018,09,16,22,04,11.60
2018,09,16,22,05,11.60
2018,09,16,22,06,11.60
2018,09,16,22,07,11.60
2018,09,16,22,08,11.60
2018,09,16,22,09,11.60
2018,09,16,22,10,11.60
2018,09,16,22,11,11.60
2018,09,16,22,12,11.60
2018,09,16,22,13,11.60
2018,09,16,22,14,11.50
2018,09,16,22,15,11.50
2018,09,16,22,16,11.50
2018,09,16,22,17,11.50
2018,09,16,22,18,11.50
2018,09,16,22,19,11.50
2018,09,16,22,20,11.50
2018,09,16,22,21,11.50
2018,09,16,22,22,11.40
2018,09,16,22,23,11.40
2018,09,16,22,24,11.40
2018,09,16,22,25,11.50
2018,09,16,22,26,11.40
2018,09,16,22,27,11.50
2018,09,16,22,28,11.50
2018,09,16,22,29,11.50
2018,09,16,22,30,11.50
2018,09,16,22,31,11.50
2018,09,16,22,32,11.40
2018,09,16,22,33,11.40
2018,09,16,22,34,11.40
2018,09,16,22,35,11.40
2018,09,16,22,36,11.40
2018,09,16,22,37,11.40
2018,09,16,22,38,11.40
2018,09,16,22,39,11.40
2018,09,16,22,40,11.40
2018,09,16,22,41,11.30
2018,09,16,22,42,11.40
2018,09,16,22,43,11.40
2018,09,16,22,44,11.30
2018,09,16,22,45,11.30
2018,09,16,22,46,11.30
2018,09,16,22,47,11.30
2018,09,16,22,48,11.30
2018,09,16,22,49,11.30
2018,09,16,22,50,11.30
2018,09,16,22,51,11.30
2018,09,16,22,52,11.30
2018,09,16,22,53,11.30
2018,09,16,22,54,11.30
2018,09,16,22,55,11.30
2018,09,16,22,56,11.30
2018,09,16,22,57,11.30
2018,09,16,22,58,11.20
2018,09,16,22,59,11.20
2018,09,16,23,00,11.20
2018,09,16,23,01,11.20
2018,09,16,23,02,11.20
2018,09,16,23,03,11.30
2018,09,16,23,04,11.30
2018,09,16,23,05,11.30
2018,09,16,23,06,11.30
2018,09,16,23,07,11.30
2018,09,16,23,08,11.30
2018,09,16,23,09,11.30
2018,09,16,23,10,11.30
2018,09,16,23,11,11.30
2018,09,16,23,12,11.30
2018,09,16,23,13,11.30
2018,09,16,23,14,11.30
2018,09,16,23,15,11.30
2018,09,16,23,16,11.30
2018,09,16,23,17,11.30
2018,09,16,23,18,11.30
2018,09,16,23,19,11.30
2018,09,16,23,20,11.30
2018,09,16,23,21,11.30
2018,09,16,23,22,11.30
2018,09,16,23,23,11.30
2018,09,16,23,24,11.30
2018,09,16,23,25,11.20
2018,09,16,23,26,11.20
2018,09,16,23,27,11.20
2018,09,16,23,28,11.20
2018,09,16,23,29,11.20
2018,09,16,23,30,11.20
2018,09,16,23,31,11.20
2018,09,16,23,32,11.20
2018,09,16,23,33,11.20
2018,09,16,23,34,11.20
2018,09,16,23,35,11.20
2018,09,16,23,36,11.20
2018,09,16,23,37,11.20
2018,09,16,23,38,11.20
2018,09,16,23,39,11.20
2018,09,16,23,40,11.20
2018,09,16,23,41,11.20
2018,09,16,23,42,11.20
2018,09,16,23,43,11.20
2018,09,16,23,44,11.20
2018,09,16,23,45,11.20
2018,09,16,23,46,11.20
2018,09,16,23,47,11.20
2018,09,16,23,48,11.20
2018,09,16,23,49,11.20
2018,09,16,23,50,11.20
2018,09,16,23,51,11.20
2018,09,16,23,52,11.20
2018,09,16,23,53,11.20
2018,09,16,23,54,11.20
2018,09,16,23,55,11.20
2018,09,16,23,56,11.20
2018,09,16,23,57,11.20
2018,09,16,23,58,11.20
2018,09,16,23,59,11.20
